Flag for U.S.A. Weather past 2 weeks in Woodstock, New York, U.S.A.

Now
65 °F

Mostly cloudy.


Feels Like: 65 °F
Forecast: 57 / 74 °F
Wind: 6 mph from Northwest

Location: Dutchess County Airport

Current Time: Jul 29, 2014 at 5:10:52 AM

Latest Report: Jul 29, 2014 at 3:53 AM


Visibility: 10 mi

Pressure: 29.73 "Hg

Humidity: 66%

Dew point: 53 °F

Location of WoodstockLocation

Historic Weather in Woodstock — Graph

°F

Woodstock temperature yesterday

Maximum temperature yesterday: 82 °F (at 2:53 PM)
Minimum temperature yesterday: 68 °F (at 11:53 PM)
Average temperature yesterday: 74 °F

Past Weeks' High & Low Weather Summary

 TemperatureHumidityPressure
High89 °F (Jul 23, 2:53 PM)97% (Jul 17, 4:53 AM)30.24 "Hg (Jul 17, 4:53 AM)
Low54 °F (Jul 18, 5:53 AM)35% (Jul 18, 1:53 PM)29.45 "Hg (Jul 28, 2:53 PM)
Average72 °F74%29.92 "Hg
* Reported Jul 14 3:53 AM — Jul 29 3:53 AM, Woodstock, Weather by CustomWeather, © 2014

Note: Actual official high and low records may vary slightly from our data, if they occured in-between our weather recording intervals... More about our weather records

Advertising

Woodstock weather history for previous 24 hours

 ConditionsComfort  
Time TempWeatherWind HumidityBarometerVisibility
3:53 AM
Jul 29
65 °FMostly cloudy.6 mph66%29.73 "Hg10 mi
2:53 AM65 °FPartly cloudy.5 mph73%29.72 "Hg10 mi
1:53 AM66 °FMostly cloudy.6 mph73%29.70 "Hg10 mi
12:53 AM67 °FOvercast.6 mph71%29.67 "Hg10 mi
11:53 PM
Jul 28
68 °FPassing clouds.6 mph68%29.66 "Hg10 mi
10:53 PM69 °FMostly cloudy.7 mph66%29.65 "Hg10 mi
9:53 PM70 °FPartly cloudy.10 mph64%29.62 "Hg10 mi
8:53 PM72 °FCloudy.8 mph71%29.58 "Hg10 mi
7:53 PM72 °FPartly sunny.9 mph76%29.54 "Hg10 mi
6:53 PM73 °FScattered clouds.9 mph71%29.53 "Hg10 mi
5:53 PM75 °FBroken clouds.12 mph66%29.52 "Hg10 mi
4:53 PM74 °FScattered clouds.9 mph64%29.49 "Hg10 mi
4:03 PM79 °FThunderstorms. Scattered clouds.13 mph62%29.49 "Hg10 mi
3:53 PM79 °FThundershowers. Broken clouds.14 mph62%29.47 "Hg10 mi
2:53 PM82 °FPassing clouds.14 mph51%29.45 "Hg10 mi
1:53 PM80 °FPassing clouds.8 mph60%29.46 "Hg10 mi
12:53 PM80 °FPassing clouds.9 mph62%29.47 "Hg10 mi
11:53 AM79 °FPartly sunny.8 mph67%29.49 "Hg10 mi
11:00 AM76 °FPartly sunny.6 mph72%29.51 "Hg10 mi
9:53 AM74 °FMostly cloudy.9 mph79%29.52 "Hg10 mi
8:53 AM72 °FCloudy.3 mph87%29.52 "Hg10 mi
7:53 AM71 °FOvercast.No wind90%29.51 "Hg10 mi
6:53 AM71 °FPartly sunny.No wind90%29.51 "Hg9 mi
5:53 AM69 °FOvercast.No wind93%29.52 "Hg9 mi
Weather by CustomWeather, © 2014

See weather overviewHow to use our weather pages